Location: ????????
(55.8351°N, 38.7040°E)
Time: 13:18:25
(UTC+00:00)

FENGYUN 3A - Pass Details

Date: 14 April 2024
Orbit: 821 x 835 km, 98.6° (Epoch: 23 May)

Event Time Altitude Azimuth Distance (km) Brightness Sun altitude
Rises 00:43:32 0° 14° (NNE) 3,400 7.8 -12.9°
Reaches altitude 10° 00:45:56 10° 11° (NNE) 2,460 6.9 -12.6°
Maximum altitude 00:51:17 59° 294° (WNW) 963 3.9 -12.0°
Enters shadow 00:55:49 14° 218° (SW) 2,147 5.2 -11.5°
